Location: West Sayville
(40.7279°N, 73.0976°W)
Time: 04:38:49
(UTC+00:00)

YAOGAN 1 - Pass Details

Date: 29 October 2020
Orbit: 618 x 620 km, 97.9° (Epoch: 29 November)

Event Time Altitude Azimuth Distance (km) Brightness Sun altitude
Rises 23:40:50 0° 170° (S) 2,882 5.9 -21.2°
Reaches altitude 10° 23:43:01 10° 172° (S) 1,981 5.1 -21.6°
Maximum altitude 23:47:19 74° 258° (WSW) 648 2.7 -22.4°
Drops below altitude 10° 23:51:40 10° 344° (NNW) 1,995 5.4 -23.2°
Sets 23:53:52 0° 346° (NNW) 2,906 6.2 -23.7°
